ATLAS 5 CENTAUR DEB, 55850

Orbit data source: Space-Track

ATLAS 5 CENTAUR DEB, 55850 is space debris in HEO originally from a launch on Wed, 17 Oct 2018 UTC launched from the Air Force Eastern Test Range (AFETR). Debris objects in space refer to the collection of defunct objects orbiting the Earth. Examples of debris include non-operational satellites, rocket bodies, and fragments generated from explosions, collisions, or faulty payload assembly.

Loading next visibility...
Identifier
55850, 2018-079HC
Orbit
HEO
Country
Flag of USUS
Related business
Flag of USUnited Launch Alliance/Lockheed Martin (US)
Manufacturer
ULA Decatur
Mission
Spacecraft
Bus & Motor
Unknown
Mass
Unknown
Launch date (UTC)
2018-10-17 (7 years ago)
Launch vehicle
Unknown
Launch site
Air Force Eastern Test Range (AFETR)
Object type
Payload
Rocket body
Debris
Shape & HBR
Unknown shape, 1.1 m
Radar Cross Section
RCS unknown

Expand to show TLE details & history
Last TLE update: 2 days ago

TLE from 2 days ago
0 ATLAS 5 CENTAUR DEB
1 55850U 18079HC  25343.26101822 -.00000090  00000-0  00000+0 0  9996
2 55850  13.3551  44.4942 5000489 293.6798  22.3986  1.79190683 21591
Epoch: 2025-12-09T06:15Z
TLE epoch observation values (Epoch: 2025-12-09T06:15:51.974Z)
Latitude
0.00002°
Longitude
-127.77311°
Altitude
11,535.449 km
Speed
5.53 km/s
True Right ascension
02h 57m 46s
True Declination
0° 00' 00"
Sunlit
Object was in daylight at epoch
Visualization orbit readout
Latitude
Unknown
Longitude
Unknown
Altitude
Unknown
Speed
Unknown
Apparent Right ascension
Unknown
Apparent Declination
Unknown
Sunlit
N/A
Visualization observer readout
Local Sidereal Time
13:35:12
Azimuth
Unknown
Elevation
Unknown
Doppler factor
Unknown
Orbital elements
Apogee altitude
36,575.205 km
Perigee altitude
7,937.777 km
Semi-major axis
28,634.628 km
Eccentricity
0.50005
Inclination
13.3551°
RAAN
44.4942°
Arg. of periapsis
293.6798°
True anomaly
66.29127°
Mean anomaly
22.3986°
Eccentric anomaly
41.31298°
Mean motion
0.44793 °/min
Orbital period
803.7 mins
BSTAR
0
Loading maneuver chart data...
Computing Atmospheric mass density...

Documentation

Showing up to 5 results
|